Back to catalog

SHIYAN 19

SY-19

AliveScienceSSO
NORAD 55861·PAYLOAD·🇨🇳 China

Launched Mar 15, 2023 from Jiuquan Satellite Launch Center

Loading…

Next Passes (next 24 hours)

TLE

FreshSource: Space-Track

Epoch: Sep 14, 2026, 15:08 UTC

1 55861U 23034A   26257.63074037  .00047403  00000-0  57803-3 0  9993
2 55861  97.3780 117.3393 0005485  33.4737 326.6865 15.60334748196493

Track SHIYAN 19 in real time with AllMySat

Download on the App Store